Location: Pel�-Koumbol�
(14.9505°N, 3.0798°W)
Time: 14:28:51
(UTC+00:00)

FENGYUN 3A - Pass Details

Date: 17 February 2020
Orbit: 824 x 836 km, 98.4° (Epoch: 29 March)

Event Time Altitude Azimuth Distance (km) Brightness Sun altitude
Rises 04:58:33 0° 15° (NNE) 3,376 6.9 -24.0°
Reaches altitude 10° 05:00:55 10° 18° (NNE) 2,442 6.2 -23.5°
Maximum altitude 05:06:19 71° 102° (ESE) 880 3.9 -22.2°
Drops below altitude 10° 05:11:42 10° 186° (S) 2,436 6.1 -20.9°
Sets 05:14:03 0° 188° (S) 3,368 6.8 -20.3°
